When you browse on this site, cookies collect data to enhance your experience and personalize the content and advertising you see.
Visit our Privacy Policy to learn more. By continuing to use the site, you agree to this use of cookies and data.
  • In Latvia
  • List of Countries
  • For 7 days
  • Water Temperature
  • Satellite Maps
  • Weather Map
  • Weather Widgets
  • user-avatar
    Login

    Hourly Weather Adelaide

    Today, 24 March, Sunday

    Time Temperature Precipitation Wind Pressure Humidity
    00:00 +21°C° 0 mm 1 mps 755 mmHg 83%
    01:00 +21°C° 0 mm 1 mps 754 mmHg 84%
    02:00 +21°C° 0 mm 1 mps 754 mmHg 86%
    03:00 +18°C° 0 mm 0 mps 754 mmHg 86%
    04:00 +18°C° 0 mm 0 mps 753 mmHg 86%
    05:00 +18°C° 0 mm 0 mps 753 mmHg 85%
    06:00 +18°C° 0 mm 0 mps 753 mmHg 85%
    07:00 +22°C° 0 mm 1 mps 753 mmHg 77%
    08:00 +23°C° 0 mm 2 mps 753 mmHg 69%
    09:00 +25°C° 0 mm 2 mps 752 mmHg 60%
    10:00 +25°C° 0 mm 3 mps 752 mmHg 60%
    11:00 +25°C° 0 mm 4 mps 751 mmHg 60%
    12:00 +25°C° 0 mm 4 mps 751 mmHg 59%
    13:00 +25°C° 0 mm 5 mps 750 mmHg 61%
    14:00 +24°C° 0 mm 6 mps 750 mmHg 62%
    15:00 +23°C° 0 mm 6 mps 750 mmHg 69%
    16:00 +23°C° 0 mm 7 mps 750 mmHg 67%
    17:00 +23°C° 0 mm 8 mps 750 mmHg 64%
    18:00 +23°C° 0 mm 8 mps 750 mmHg 62%
    19:00 +22°C° 0.2 mm 8 mps 751 mmHg 63%
    20:00 +21°C° 0.2 mm 9 mps 751 mmHg 65%
    21:00 +19°C° 0.2 mm 9 mps 751 mmHg 67%
    22:00 +18°C° 0.1 mm 9 mps 752 mmHg 65%
    23:00 +18°C° 0.1 mm 9 mps 752 mmHg 63%

    Tomorrow, 25 March, Monday

    Time Temperature Precipitation Wind Pressure Humidity
    00:00 +17°C° 0.1 mm 9 mps 752 mmHg 61%
    01:00 +17°C° 0.1 mm 8 mps 753 mmHg 61%
    02:00 +16°C° 0.1 mm 8 mps 753 mmHg 60%
    03:00 +16°C° 0.1 mm 8 mps 753 mmHg 60%
    04:00 +15°C° 0.1 mm 8 mps 754 mmHg 59%
    05:00 +15°C° 0.1 mm 8 mps 754 mmHg 59%
    06:00 +15°C° 0.1 mm 8 mps 755 mmHg 59%
    07:00 +15°C° 0.1 mm 8 mps 755 mmHg 57%
    08:00 +15°C° 0.1 mm 8 mps 756 mmHg 55%
    09:00 +15°C° 0.1 mm 8 mps 757 mmHg 54%
    10:00 +16°C° 0 mm 7 mps 757 mmHg 51%
    11:00 +17°C° 0 mm 7 mps 757 mmHg 48%
    12:00 +17°C° 0 mm 7 mps 758 mmHg 45%
    13:00 +17°C° 0 mm 6 mps 758 mmHg 44%
    14:00 +17°C° 0 mm 6 mps 758 mmHg 44%
    15:00 +17°C° 0 mm 6 mps 758 mmHg 43%
    16:00 +17°C° 0 mm 5 mps 758 mmHg 46%
    17:00 +16°C° 0 mm 5 mps 759 mmHg 48%
    18:00 +15°C° 0 mm 5 mps 759 mmHg 51%
    19:00 +15°C° 0 mm 4 mps 760 mmHg 53%
    20:00 +14°C° 0 mm 4 mps 761 mmHg 55%
    21:00 +14°C° 0 mm 3 mps 761 mmHg 58%
    22:00 +14°C° 0 mm 3 mps 762 mmHg 59%
    23:00 +14°C° 0 mm 3 mps 762 mmHg 60%

    Day after tomorrow, 26 March, Tuesday

    Time Temperature Precipitation Wind Pressure Humidity
    00:00 +14°C° 0 mm 3 mps 762 mmHg 60%
    01:00 +14°C° 0 mm 3 mps 762 mmHg 62%
    02:00 +13°C° 0 mm 3 mps 762 mmHg 63%
    03:00 +13°C° 0 mm 3 mps 762 mmHg 64%
    04:00 +13°C° 0 mm 3 mps 762 mmHg 65%
    05:00 +13°C° 0 mm 3 mps 763 mmHg 66%
    06:00 +14°C° 0 mm 2 mps 763 mmHg 67%
    07:00 +15°C° 0 mm 2 mps 764 mmHg 63%
    08:00 +17°C° 0 mm 3 mps 764 mmHg 58%
    09:00 +18°C° 0 mm 3 mps 764 mmHg 53%
    10:00 +19°C° 0 mm 3 mps 764 mmHg 53%
    11:00 +19°C° 0 mm 3 mps 764 mmHg 54%
    12:00 +19°C° 0 mm 3 mps 764 mmHg 54%
    13:00 +20°C° 0 mm 3 mps 764 mmHg 54%
    14:00 +20°C° 0 mm 3 mps 763 mmHg 53%
    15:00 +20°C° 0 mm 3 mps 763 mmHg 52%
    16:00 +20°C° 0 mm 3 mps 763 mmHg 55%
    17:00 +19°C° 0 mm 3 mps 763 mmHg 57%
    18:00 +19°C° 0 mm 3 mps 764 mmHg 59%
    19:00 +18°C° 0 mm 3 mps 764 mmHg 65%
    20:00 +17°C° 0 mm 2 mps 765 mmHg 70%
    21:00 +16°C° 0 mm 2 mps 765 mmHg 76%
    22:00 +16°C° 0 mm 2 mps 765 mmHg 79%
    23:00 +15°C° 0 mm 2 mps 765 mmHg 81%

    27 March, Wednesday

    Time Temperature Precipitation Wind Pressure Humidity
    00:00 +15°C° 0 mm 2 mps 765 mmHg 84%
    01:00 +15°C° 0 mm 2 mps 764 mmHg 85%
    02:00 +15°C° 0 mm 1 mps 764 mmHg 86%
    03:00 +15°C° 0 mm 1 mps 764 mmHg 87%
    04:00 +14°C° 0 mm 1 mps 764 mmHg 88%
    05:00 +14°C° 0 mm 1 mps 764 mmHg 88%
    06:00 +14°C° 0 mm 1 mps 765 mmHg 89%
    07:00 +16°C° 0 mm 1 mps 765 mmHg 78%
    08:00 +19°C° 0 mm 1 mps 765 mmHg 68%
    09:00 +21°C° 0 mm 1 mps 765 mmHg 58%
    10:00 +23°C° 0 mm 1 mps 764 mmHg 51%
    11:00 +25°C° 0 mm 1 mps 764 mmHg 45%
    12:00 +26°C° 0 mm 1 mps 763 mmHg 39%
    13:00 +26°C° 0 mm 2 mps 763 mmHg 40%
    14:00 +26°C° 0 mm 2 mps 762 mmHg 41%
    15:00 +25°C° 0 mm 3 mps 761 mmHg 42%
    16:00 +24°C° 0 mm 3 mps 761 mmHg 48%
    17:00 +22°C° 0 mm 3 mps 761 mmHg 53%
    18:00 +20°C° 0 mm 3 mps 761 mmHg 59%
    19:00 +19°C° 0 mm 3 mps 761 mmHg 64%
    20:00 +19°C° 0 mm 3 mps 761 mmHg 69%
    21:00 +18°C° 0 mm 3 mps 761 mmHg 74%
    22:00 +17°C° 0 mm 3 mps 761 mmHg 74%
    23:00 +17°C° 0 mm 2 mps 760 mmHg 75%

    28 March, Thursday

    Time Temperature Precipitation Wind Pressure Humidity
    00:00 +17°C° 0 mm 2 mps 760 mmHg 76%
    01:00 +17°C° 0 mm 2 mps 759 mmHg 74%
    02:00 +17°C° 0 mm 2 mps 759 mmHg 71%
    03:00 +18°C° 0 mm 1 mps 759 mmHg 69%
    04:00 +18°C° 0 mm 1 mps 759 mmHg 66%
    05:00 +18°C° 0 mm 1 mps 759 mmHg 64%
    06:00 +18°C° 0 mm 1 mps 759 mmHg 61%
    07:00 +19°C° 0 mm 2 mps 759 mmHg 53%
    08:00 +21°C° 0 mm 2 mps 759 mmHg 45%
    09:00 +24°C° 0 mm 2 mps 759 mmHg 38%
    10:00 +25°C° 0 mm 3 mps 759 mmHg 36%
    11:00 +26°C° 0 mm 3 mps 758 mmHg 35%
    12:00 +27°C° 0 mm 3 mps 758 mmHg 34%
    13:00 +27°C° 0 mm 3 mps 757 mmHg 35%
    14:00 +26°C° 0 mm 3 mps 757 mmHg 36%
    15:00 +26°C° 0 mm 3 mps 756 mmHg 38%
    16:00 +25°C° 0 mm 3 mps 756 mmHg 44%
    17:00 +22°C° 0 mm 3 mps 756 mmHg 50%
    18:00 +21°C° 0 mm 2 mps 757 mmHg 56%
    19:00 +20°C° 0 mm 2 mps 757 mmHg 63%
    20:00 +19°C° 0 mm 2 mps 757 mmHg 69%
    21:00 +18°C° 0 mm 2 mps 758 mmHg 76%
    22:00 +19°C° 0 mm 1 mps 757 mmHg 79%
    23:00 +18°C° 0 mm 1 mps 757 mmHg 83%

    29 March, Friday

    Time Temperature Precipitation Wind Pressure Humidity
    00:00 +16°C° 0 mm 0 mps 756 mmHg 86%
    01:00 +18°C° 0 mm 1 mps 756 mmHg 86%
    02:00 +18°C° 0 mm 1 mps 756 mmHg 87%
    03:00 +17°C° 0 mm 2 mps 756 mmHg 88%
    04:00 +17°C° 0 mm 2 mps 756 mmHg 88%
    05:00 +17°C° 0 mm 3 mps 756 mmHg 89%
    06:00 +17°C° 0 mm 3 mps 757 mmHg 90%
    07:00 +17°C° 0.2 mm 4 mps 757 mmHg 85%
    08:00 +16°C° 0.2 mm 5 mps 757 mmHg 81%
    09:00 +17°C° 0.2 mm 6 mps 757 mmHg 76%
    10:00 +17°C° 0 mm 6 mps 757 mmHg 70%
    11:00 +17°C° 0 mm 6 mps 757 mmHg 64%
    12:00 +17°C° 0 mm 6 mps 757 mmHg 58%
    13:00 +17°C° 0 mm 6 mps 757 mmHg 56%
    14:00 +17°C° 0 mm 6 mps 757 mmHg 53%
    15:00 +19°C° 0 mm 6 mps 757 mmHg 51%
    16:00 +17°C° 0 mm 6 mps 757 mmHg 54%
    17:00 +16°C° 0 mm 7 mps 758 mmHg 58%
    18:00 +16°C° 0 mm 7 mps 758 mmHg 62%
    19:00 +15°C° 0 mm 6 mps 759 mmHg 61%
    20:00 +14°C° 0 mm 6 mps 760 mmHg 61%
    21:00 +13°C° 0 mm 6 mps 760 mmHg 60%
    22:00 +13°C° 0 mm 6 mps 760 mmHg 59%
    23:00 +13°C° 0 mm 6 mps 761 mmHg 58%
    Show more